This is the latest recevied weather packets stored in our database for station/object PU5BHV. If no packets are shown the sender has not sent any weather packets the latest 1 day(s).
| Time | Temp. | Humidity | Pressure | Rain* | Wind** | Luminosity | Snow |
|---|---|---|---|---|---|---|---|
| 1777992313 | 26.67° C | 71% | 1020.6 hPa | 0 mm | 0.45 m/s, 209° | 684 W/m² | - |
| 1777992010 | 26.67° C | 70% | 1020.6 hPa | 0 mm | 0.89 m/s, 108° | 629 W/m² | - |
| 1777991708 | 26.67° C | 72% | 1020.7 hPa | 0 mm | 0 m/s | 641 W/m² | - |
| 1777991405 | 26.67° C | 73% | 1020.8 hPa | 0 mm | 0.45 m/s, 235° | 655 W/m² | - |
| 1777991102 | 26.11° C | 71% | 1020.9 hPa | 0 mm | 0.89 m/s, 28° | 628 W/m² | - |
| 1777990799 | 25.56° C | 73% | 1021.1 hPa | 0 mm | 0 m/s | 641 W/m² | - |
| 1777990496 | 25.56° C | 72% | 1020.9 hPa | 0 mm | 0 m/s | 701 W/m² | - |
| 1777990193 | 25.56° C | 73% | 1021.2 hPa | 0 mm | 0.45 m/s, 99° | 658 W/m² | - |
| 1777989890 | 25° C | 75% | 1021.3 hPa | 0 mm | 0 m/s | 786 W/m² | - |
| 1777989586 | 25° C | 75% | 1021.1 hPa | 0 mm | 0 m/s | 698 W/m² | - |
| 1777989283 | 24.44° C | 77% | 1021.1 hPa | 0 mm | 0.45 m/s, 9° | 724 W/m² | - |
| 1777988979 | 24.44° C | 74% | 1021.4 hPa | 0 mm | 0.45 m/s, 341° | 292 W/m² | - |
| 1777988676 | 25.56° C | 75% | 1021.3 hPa | 0 mm | 0 m/s | 252 W/m² | - |
| 1777988372 | 25° C | 74% | 1021.3 hPa | 0 mm | 0 m/s | 746 W/m² | - |
| 1777988070 | 23.89° C | 76% | 1021.3 hPa | 0 mm | 0 m/s | 685 W/m² | - |
| 1777987765 | 23.89° C | 77% | 1021.5 hPa | 0 mm | 0.45 m/s, 49° | 617 W/m² | - |
| 1777987462 | 23.89° C | 78% | 1021.2 hPa | 0 mm | 0 m/s | 213 W/m² | - |
| 1777987160 | 23.89° C | 77% | 1021.3 hPa | 0 mm | 0 m/s | 240 W/m² | - |
| 1777986857 | 23.89° C | 77% | 1021.6 hPa | 0 mm | 0.45 m/s, 181° | 701 W/m² | - |
| 1777986555 | 23.33° C | 78% | 1021.4 hPa | 0 mm | 0.45 m/s, 76° | 686 W/m² | - |
| 1777986252 | 23.89° C | 78% | 1021.5 hPa | 0 mm | 0.45 m/s, 156° | 261 W/m² | - |
| 1777985949 | 23.89° C | 76% | 1021.5 hPa | 0 mm | 0 m/s | 447 W/m² | - |
| 1777985647 | 23.89° C | 77% | 1021.5 hPa | 0 mm | 0.45 m/s, 85° | 584 W/m² | - |
| 1777985343 | 23.33° C | 79% | 1021.2 hPa | 0 mm | 0 m/s | 385 W/m² | - |
| 1777985040 | 22.78° C | 77% | 1021.3 hPa | 0 mm | 0.45 m/s, 130° | 277 W/m² | - |
* Rain latest hour (hover to see other rain measurements)
** Current wind speed in m/s (hover to see current wind gust speed)